[[{"header":{"parameterUnit":"m.s-1","parameterCategory":1,"la1":30.2991,"la2":30.254,"lo1":-89.0895,"lo2":-89.0444,"dy":0.0017,"dx":0.0017,"nx":28,"ny":28,"refTime":"2025-11-27T09:00:00:Z","depth":0,"parameterNumber":2,"parameterNumberName":"U-component_of_WINDS"},"data":[0,0,0,0,0,0,0,0,0,0,0,0,0,0,0,0,0,0,0,0,0,0,0,0,0,0,0,0,0,0,0,0,0,0,0,0,0,0,0,0,0,0,0,0,0,0,0,0,0,0,0,0,0,0,0,0,0,0,-0.7293,-0.7293,0,-0.7366,-0.7367,-0.7368,-0.732,-0.7318,-0.7316,-0.7314,-0.7393,-0.7397,-0.7401,0,0,0,0,0,0,0,0,0,0,0,0,0,-0.7112,-0.7116,-0.7292,-0.7293,-0.7294,-0.7366,-0.7367,-0.7368,-0.7321,-0.7318,-0.7315,-0.7313,-0.7391,-0.7396,-0.7401,0,0,0,0,0,0,0,0,0,0,0,0,0,-0.7189,-0.7117,-0.7292,-0.7279,-0.7279,-0.7366,-0.7367,-0.7369,-0.7321,-0.7318,-0.7315,-0.7312,-0.739,-0.7396,-0.7402,-0.7507,0,0,-0.7421,-0.7424,0,0,0,0,0,0,0,0,-0.7184,-0.7195,-0.728,-0.728,-0.728,-0.7331,-0.7332,-0.7415,-0.7322,-0.7305,-0.7314,-0.731,-0.7375,-0.7382,-0.7403,-0.7511,-0.7514,-0.7421,-0.7425,-0.7428,-0.743,0,0,0,0,0,0,0,-0.7179,-0.7192,-0.7322,-0.7282,-0.7281,-0.727,-0.7277,-0.7348,-0.7358,-0.7307,-0.7303,-0.7313,-0.7374,-0.7398,-0.7405,-0.7515,-0.7421,-0.7427,-0.7431,-0.7433,-0.7713,-0.7716,0,0,0,0,0,0,-0.7175,-0.7188,-0.7319,-0.7324,-0.7223,-0.7276,-0.7284,-0.7318,-0.7357,-0.736,-0.7315,-0.731,-0.7388,-0.7398,-0.7408,-0.7534,-0.7428,-0.7434,-0.7437,-0.7709,-0.7714,-0.7718,0,0,0,0,0,0,-0.7171,-0.7187,-0.7316,-0.7255,-0.7271,-0.7283,-0.7321,-0.7321,-0.7344,-0.7364,-0.7365,-0.7337,-0.7386,-0.7399,-0.7483,-0.7536,-0.7437,-0.7442,-0.7705,-0.7711,-0.7716,-0.7789,0,0,0,0,0,0,-0.7166,-0.7186,-0.7226,-0.7256,-0.7274,-0.739,-0.7324,-0.7325,-0.7355,-0.7349,-0.7385,-0.7388,-0.7385,-0.7473,-0.7489,-0.7543,-0.7447,-0.77,-0.7707,-0.7714,-0.7782,-0.7796,-0.7808,0,0,0,0,0,-0.716,-0.7244,-0.7228,-0.7244,-0.7324,-0.7393,-0.7404,-0.7398,-0.7359,-0.74,-0.7412,-0.7386,-0.7527,-0.7482,-0.7499,-0.7557,-0.7697,-0.7705,-0.7713,-0.7776,-0.7793,-0.7808,0,0,0,0,0,0,-0.7221,-0.7248,-0.723,-0.7327,-0.7358,-0.7385,-0.7436,-0.7416,-0.746,-0.7453,-0.7444,-0.7453,-0.7541,-0.7556,-0.7506,-0.766,-0.7606,-0.7618,-0.7648,-0.7664,-0.7678,-0.7674,-0.7452,0,0,0,0,0,-0.7245,-0.7298,-0.7319,-0.7402,-0.7418,-0.7425,-0.7454,-0.7447,-0.7479,-0.7493,-0.7511,-0.7544,-0.7596,-0.763,-0.7679,-0.7782,-0.779,-0.783,-0.7843,-0.7854,-0.7866,-0.7922,-0.7941,-0.7745,-0.7745,-0.7745,0,0,-0.7297,-0.7318,-0.7352,-0.7415,-0.7438,-0.7494,-0.7436,-0.7498,-0.754,-0.7502,-0.7583,-0.7597,-0.7634,-0.7728,-0.777,-0.7744,-0.7921,-0.7864,-0.7873,-0.7879,-0.7933,-0.7951,-0.7968,-0.775,-0.7749,-0.7749,0,0,-0.742,-0.744,-0.7512,-0.7536,-0.7572,-0.7575,-0.7592,-0.7622,-0.763,-0.771,-0.7683,-0.7733,-0.7822,-0.7849,-0.7875,-0.8006,-0.7985,-0.8022,-0.8094,-0.8149,-0.8164,-0.8178,-0.8227,-0.8244,-0.8033,-0.8033,-0.8033,0,-0.748,-0.7563,-0.7552,-0.7616,-0.7645,-0.7611,-0.7685,-0.7709,-0.7759,-0.778,-0.7748,-0.7859,-0.7881,-0.7982,-0.8014,-0.8035,-0.8055,-0.802,-0.8163,-0.8176,-0.8189,-0.8236,-0.8254,-0.8037,-0.8037,-0.8036,-0.8036,0,-0.7636,-0.7694,-0.7748,-0.7796,-0.7831,-0.7899,-0.7899,-0.7935,-0.7924,-0.793,-0.8013,-0.8037,-0.8091,-0.8113,-0.8103,-0.8213,-0.8195,-0.8163,-0.8109,-0.8212,-0.8256,-0.8274,-0.8044,-0.8042,-0.8041,-0.804,0,0,-0.7804,-0.7843,-0.7864,-0.7885,-0.7921,-0.7966,-0.8032,-0.8083,-0.8115,-0.815,-0.8207,-0.8281,-0.8252,-0.8281,-0.8273,-0.8321,-0.8426,-0.8284,-0.8285,-0.8312,-0.855,-0.8576,-0.8597,-0.841,-0.8414,-0.8416,-0.8548,0,-0.7931,-0.8047,-0.8038,-0.8148,-0.8202,-0.817,-0.8228,-0.8256,-0.8264,-0.8311,-0.8319,-0.8373,-0.8329,-0.8346,-0.8392,-0.8404,-0.8474,-0.8394,-0.8465,-0.8468,-0.846,-0.8619,-0.8647,-0.8771,-0.8565,-0.8567,-0.857,0,-0.8096,-0.8136,-0.8251,-0.8278,-0.8301,-0.8353,-0.8399,-0.8444,-0.8475,-0.8477,-0.8509,-0.8492,-0.856,-0.8501,-0.8595,-0.8541,-0.8568,-0.8578,-0.8583,-0.8592,-0.8528,-0.8636,-0.8809,-0.8829,-0.8596,-0.8594,-0.8592,0,-0.821,-0.8292,-0.8371,-0.839,-0.8424,-0.8462,-0.8477,-0.8505,-0.8536,-0.8576,-0.8596,-0.8643,-0.867,-0.8707,-0.8705,-0.8662,-0.88,-0.8741,-0.8806,-0.8806,-0.884,-0.8838,-0.9023,-0.8852,-0.8852,-0.8852,-0.8851,0,-0.8355,-0.8428,-0.8423,-0.8473,-0.8553,-0.8541,-0.8621,-0.8632,-0.8657,-0.8709,-0.8682,-0.8731,-0.8723,-0.8772,-0.877,-0.8849,-0.886,-0.8865,-0.8864,-0.8869,-0.8869,-0.889,-0.8883,-0.8857,-0.8855,-0.8854,-0.8854,0,-0.8498,-0.8497,-0.8582,-0.8606,-0.8613,-0.8672,-0.8692,-0.8739,-0.8743,-0.8808,-0.8823,-0.883,-0.8886,-0.8885,-0.895,-0.8948,-0.9046,-0.9034,-0.9036,-0.9034,-0.91,-0.9095,-0.9308,-0.9336,-0.9144,-0.9145,-0.9147,0,-0.8592,-0.8647,-0.8676,-0.8708,-0.8726,-0.8778,-0.8809,-0.8799,-0.8833,-0.8872,-0.8915,-0.8968,-0.9011,-0.9102,-0.9113,-0.9162,-0.9153,-0.9224,-0.916,-0.9164,-0.9157,-0.9155,-0.9161,-0.9238,-0.924,-0.9241,-0.9243,0,-0.8761,-0.8757,-0.8803,-0.8849,-0.8886,-0.8922,-0.8955,-0.8983,-0.8976,-0.9015,-0.9072,-0.9105,-0.917,-0.9224,-0.927,-0.9287,-0.9265,-0.9262,-0.928,-0.9288,-0.9288,-0.9291,-0.9073,-0.9258,-0.9257,-0.9256,-0.9255,-0.9254,-0.8884,-0.8931,-0.8959,-0.9011,-0.9034,-0.9065,-0.911,-0.9119,-0.9166,-0.9218,-0.9208,-0.9272,-0.9301,-0.9362,-0.9382,-0.9432,-0.9407,-0.9433,-0.944,-0.9447,-0.9456,-0.9277,-0.944,-0.944,-0.9439,-0.9439,-0.9439,0,-0.9054,-0.9069,-0.9117,-0.9163,-0.9204,-0.9176,-0.9211,-0.9247,-0.9303,-0.9332,-0.9374,-0.9439,-0.9491,-0.9504,-0.9554,-0.9592,-0.9583,-0.9606,-0.9605,-0.9609,-0.9474,-0.9455,-0.9612,-0.9612,-0.9612,-0.9612,-0.9612,-0.9612,-0.9147,-0.9226,-0.9226,-0.9316,-0.9331,-0.9393,-0.9416,-0.9444,-0.9467,-0.9541,-0.9583,-0.9591,-0.9614,-0.9665,-0.9711,-0.9714,-0.9735,-0.9762,-0.9761,-0.9636,-0.9618,-0.9602,-0.9584,-0.9766,-0.9766,-0.9893,-0.9894,-0.9895]},{"header":{"parameterUnit":"m.s-1","parameterCategory":1,"la1":30.2991,"la2":30.254,"lo1":-89.0895,"lo2":-89.0444,"dy":0.0017,"dx":0.0017,"nx":28,"ny":28,"refTime":"2025-11-27T09:00:00:Z","depth":0,"parameterNumber":3,"parameterNumberName":"V-component_of_WINDS"},"data":[0,0,0,0,0,0,0,0,0,0,0,0,0,0,0,0,0,0,0,0,0,0,0,0,0,0,0,0,0,0,0,0,0,0,0,0,0,0,0,0,0,0,0,0,0,0,0,0,0,0,0,0,0,0,0,0,0,0,-6.8964,-6.8966,0,-6.913,-6.9131,-6.9133,-6.9027,-6.9022,-6.9017,-6.9012,-6.9175,-6.9184,-6.9193,0,0,0,0,0,0,0,0,0,0,0,0,0,-6.8551,-6.8559,-6.8964,-6.8966,-6.8969,-6.9129,-6.9132,-6.9134,-6.9028,-6.9022,-6.9016,-6.901,-6.9172,-6.9183,-6.9193,0,0,0,0,0,0,0,0,0,0,0,0,0,-6.8725,-6.8562,-6.8964,-6.8935,-6.8934,-6.9129,-6.9132,-6.9134,-6.9029,-6.9022,-6.9014,-6.9007,-6.9169,-6.9182,-6.9195,-6.9425,0,0,-6.9236,-6.9242,0,0,0,0,0,0,0,0,-6.8715,-6.874,-6.8937,-6.8937,-6.8937,-6.905,-6.9045,-6.9232,-6.9031,-6.8993,-6.9012,-6.9004,-6.9139,-6.9154,-6.9201,-6.9433,-6.944,-6.9237,-6.9245,-6.9251,-6.9255,0,0,0,0,0,0,0,-6.8703,-6.8732,-6.9029,-6.894,-6.894,-6.8912,-6.8928,-6.908,-6.9105,-6.8996,-6.8988,-6.901,-6.9137,-6.9189,-6.9204,-6.9442,-6.9237,-6.9248,-6.9257,-6.9262,-6.987,-6.9878,0,0,0,0,0,0,-6.8694,-6.8723,-6.9024,-6.9034,-6.8806,-6.8925,-6.8944,-6.9021,-6.9103,-6.9109,-6.9016,-6.9004,-6.917,-6.9189,-6.921,-6.9485,-6.9251,-6.9263,-6.9271,-6.9862,-6.9872,-6.9881,0,0,0,0,0,0,-6.8686,-6.8722,-6.9017,-6.8877,-6.8912,-6.894,-6.9028,-6.9028,-6.908,-6.9119,-6.9122,-6.9064,-6.9165,-6.9191,-6.9373,-6.9489,-6.9269,-6.9281,-6.9853,-6.9865,-6.9876,-7.0038,0,0,0,0,0,0,-6.8674,-6.872,-6.8809,-6.888,-6.892,-6.918,-6.9035,-6.9037,-6.9104,-6.909,-6.9165,-6.917,-6.9161,-6.9354,-6.9386,-6.9504,-6.9292,-6.9842,-6.9858,-6.9873,-7.0022,-7.0054,-7.0081,0,0,0,0,0,-6.866,-6.8846,-6.8814,-6.8851,-6.9033,-6.9187,-6.921,-6.9198,-6.9114,-6.9203,-6.9228,-6.9168,-6.9471,-6.9373,-6.9409,-6.9532,-6.9835,-6.9854,-6.9871,-7.0009,-7.0048,-7.0081,0,0,0,0,0,0,-6.8786,-6.8855,-6.882,-6.9035,-6.9107,-6.9169,-6.9281,-6.9239,-6.9334,-6.9317,-6.9295,-6.9313,-6.9503,-6.9535,-6.9425,-6.9759,-6.9639,-6.9666,-6.9732,-6.9769,-6.9798,-6.9786,-6.9303,0,0,0,0,0,-6.884,-6.8962,-6.9014,-6.9199,-6.9237,-6.9253,-6.932,-6.9304,-6.9376,-6.9405,-6.9443,-6.9514,-6.9625,-6.9698,-6.9802,-7.0026,-7.004,-7.0128,-7.0158,-7.0182,-7.0205,-7.0326,-7.0365,-6.9941,-6.9941,-6.994,0,0,-6.895,-6.9003,-6.9081,-6.9226,-6.9279,-6.9404,-6.9279,-6.9416,-6.9508,-6.9425,-6.96,-6.9631,-6.9707,-6.9912,-7.0003,-6.9944,-7.0325,-7.0205,-7.0224,-7.0234,-7.0349,-7.0389,-7.0424,-6.9953,-6.9951,-6.9949,0,0,-6.9216,-6.9269,-6.9429,-6.9485,-6.9569,-6.9578,-6.9617,-6.9686,-6.9704,-6.988,-6.982,-6.9928,-7.012,-7.0177,-7.0232,-7.052,-7.0468,-7.0554,-7.0709,-7.0826,-7.086,-7.0889,-7.0993,-7.103,-7.0577,-7.0577,-7.0578,0,-6.9343,-6.9531,-6.9516,-6.9659,-6.9724,-6.9656,-6.9817,-6.9872,-6.9984,-7.003,-6.9962,-7.0203,-7.0249,-7.0466,-7.0537,-7.0583,-7.0625,-7.0546,-7.0857,-7.0886,-7.0913,-7.1011,-7.105,-7.0587,-7.0586,-7.0585,-7.0584,0,-6.9683,-6.9814,-6.9933,-7.0046,-7.0124,-7.0275,-7.0281,-7.0362,-7.0339,-7.0356,-7.0535,-7.0589,-7.0703,-7.0753,-7.0731,-7.0967,-7.0928,-7.086,-7.0739,-7.0964,-7.1056,-7.1093,-7.0602,-7.0598,-7.0595,-7.0593,0,0,-7.0033,-7.0137,-7.0181,-7.0232,-7.0318,-7.0418,-7.0566,-7.068,-7.075,-7.0829,-7.0951,-7.1115,-7.1053,-7.1115,-7.1098,-7.1202,-7.1427,-7.112,-7.1121,-7.1176,-7.169,-7.1742,-7.1786,-7.1393,-7.14,-7.1406,-7.1684,0,-7.0305,-7.0565,-7.0556,-7.0798,-7.0918,-7.0856,-7.0984,-7.105,-7.107,-7.1173,-7.1192,-7.131,-7.1218,-7.1255,-7.1354,-7.1379,-7.153,-7.1358,-7.1506,-7.1511,-7.149,-7.1834,-7.1889,-7.2149,-7.172,-7.1726,-7.173,0,-7.0657,-7.0751,-7.1006,-7.1076,-7.1126,-7.1242,-7.1346,-7.1446,-7.1519,-7.1525,-7.1596,-7.1563,-7.171,-7.1585,-7.1787,-7.1671,-7.173,-7.1751,-7.1761,-7.1774,-7.1635,-7.1858,-7.2232,-7.2272,-7.1786,-7.1782,-7.1778,0,-7.0888,-7.1078,-7.1256,-7.1301,-7.1386,-7.1469,-7.1508,-7.1574,-7.1643,-7.1733,-7.1778,-7.1883,-7.194,-7.2022,-7.2017,-7.1927,-7.2223,-7.2097,-7.2231,-7.2232,-7.2297,-7.2293,-7.2687,-7.2334,-7.2334,-7.2333,-7.2332,0,-7.1193,-7.1352,-7.1361,-7.147,-7.1645,-7.1632,-7.1805,-7.1835,-7.1894,-7.2007,-7.1958,-7.2064,-7.2051,-7.2158,-7.2155,-7.2323,-7.2349,-7.2357,-7.2355,-7.2363,-7.2362,-7.2401,-7.2384,-7.2343,-7.2341,-7.2339,-7.2337,0,-7.1482,-7.1494,-7.1684,-7.175,-7.177,-7.1896,-7.1951,-7.2054,-7.2069,-7.2212,-7.2244,-7.2267,-7.239,-7.2394,-7.2533,-7.2531,-7.2737,-7.2713,-7.2713,-7.2709,-7.2843,-7.2831,-7.3277,-7.3335,-7.2944,-7.2948,-7.2951,0,-7.1676,-7.1797,-7.1877,-7.195,-7.1995,-7.2112,-7.2184,-7.2174,-7.225,-7.2343,-7.2434,-7.2552,-7.2647,-7.2845,-7.2873,-7.2979,-7.2959,-7.3108,-7.2974,-7.2978,-7.2962,-7.2955,-7.2967,-7.3134,-7.3138,-7.3142,-7.3145,0,-7.202,-7.202,-7.2126,-7.2235,-7.2322,-7.2406,-7.2484,-7.2546,-7.2546,-7.2633,-7.2759,-7.2833,-7.2977,-7.3095,-7.3198,-7.3235,-7.3191,-7.3186,-7.3223,-7.3233,-7.3228,-7.3233,-7.2785,-7.3176,-7.3173,-7.3171,-7.3169,-7.3168,-7.2268,-7.2373,-7.2446,-7.2565,-7.2623,-7.2698,-7.2798,-7.2826,-7.2932,-7.305,-7.3037,-7.3178,-7.3246,-7.3382,-7.3428,-7.3536,-7.3484,-7.3537,-7.3551,-7.3564,-7.3579,-7.3211,-7.3554,-7.3553,-7.3552,-7.3552,-7.3551,0,-7.261,-7.2654,-7.2764,-7.2876,-7.297,-7.2921,-7.3005,-7.3086,-7.3211,-7.328,-7.3375,-7.352,-7.3634,-7.3671,-7.3781,-7.3861,-7.3843,-7.389,-7.3884,-7.3894,-7.3619,-7.3576,-7.3903,-7.3903,-7.3903,-7.3903,-7.3902,-7.3902,-7.2799,-7.2974,-7.2983,-7.3186,-7.3228,-7.3367,-7.3419,-7.3487,-7.3543,-7.3708,-7.3803,-7.3827,-7.3883,-7.3997,-7.4099,-7.4107,-7.415,-7.4206,-7.4206,-7.3948,-7.3913,-7.3879,-7.3839,-7.4216,-7.4216,-7.4472,-7.4474,-7.4476]}]]